This is the latest recevied weather packets stored in our database for station/object K4KMJ. If no packets are shown the sender has not sent any weather packets the latest 10 day(s).
| Time | Temp. | Humidity | Pressure | Rain* | Wind** | Luminosity | Snow |
|---|---|---|---|---|---|---|---|
| 1777716697 | 20° C | 99% | 1011.5 hPa | 0 mm | - | 0 W/m² | - |
| 1777716395 | 20° C | 99% | 1011.7 hPa | 0 mm | - | 0 W/m² | - |
| 1777716093 | 20° C | 98% | 1011.8 hPa | 0 mm | - | 0 W/m² | - |
| 1777715791 | 20° C | 98% | 1011.7 hPa | 0 mm | - | 0 W/m² | - |
| 1777715488 | 20° C | 98% | 1011.8 hPa | 0 mm | - | 0 W/m² | - |
| 1777715185 | 20° C | 98% | 1011.9 hPa | 0 mm | - | 0 W/m² | - |
| 1777714883 | 20° C | 98% | 1012.1 hPa | 0 mm | - | 0 W/m² | - |
| 1777714582 | 20° C | 98% | 1012 hPa | 0 mm | - | 0 W/m² | - |
| 1777714278 | 20° C | 98% | 1012 hPa | 0 mm | - | 0 W/m² | - |
| 1777713977 | 20.56° C | 98% | 1012.2 hPa | 0 mm | - | 0 W/m² | - |
| 1777713674 | 20.56° C | 98% | 1012 hPa | 0 mm | - | 0 W/m² | - |
| 1777713371 | 20.56° C | 97% | 1012.2 hPa | 0 mm | - | 0 W/m² | - |
| 1777713067 | 20.56° C | 97% | 1012.3 hPa | 0 mm | - | 0 W/m² | - |
| 1777712764 | 20.56° C | 97% | 1012.5 hPa | 0 mm | - | 0 W/m² | - |
| 1777712461 | 21.11° C | 97% | 1012.4 hPa | 0 mm | - | 0 W/m² | - |
| 1777712158 | 21.11° C | 97% | 1012.4 hPa | 0 mm | - | 0 W/m² | - |
| 1777711854 | 21.67° C | 97% | 1012.4 hPa | 0 mm | - | 0 W/m² | - |
| 1777711551 | 21.67° C | 96% | 1012.5 hPa | 0 mm | - | 0 W/m² | - |
| 1777711245 | 21.67° C | 96% | 1012.3 hPa | 0 mm | - | 0 W/m² | - |
| 1777710943 | 22.22° C | 96% | 1012.6 hPa | 0 mm | - | 0 W/m² | - |
| 1777710640 | 22.22° C | 96% | 1012.6 hPa | 0 mm | - | 0 W/m² | - |
| 1777710337 | 21.67° C | 96% | 1012.5 hPa | 0 mm | - | 0 W/m² | - |
| 1777710034 | 22.22° C | 95% | 1012.7 hPa | 0 mm | - | 0 W/m² | - |
| 1777709732 | 22.22° C | 95% | 1012.4 hPa | 0 mm | - | 0 W/m² | - |
| 1777709428 | 22.22° C | 95% | 1012.4 hPa | 0 mm | - | 0 W/m² | - |
* Rain latest hour (hover to see other rain measurements)
** Current wind speed in m/s (hover to see current wind gust speed)